GW5522 Weather Reports


Display with metric or nautical units.
time (UTC)temp
F
wind
direction
speed
MPH
gust
MPH
rain 1hr
in
rain 24hr
in
rain mn
in
humidity
%
barometer
mb
20260504005915 54 0 0.0 0.0 0.00 0.00 0.00 51 1013.0
20260504005414 55 0 0.0 0.0 0.00 0.00 0.00 48 1013.0
20260504004914 55 0 0.0 0.0 0.00 0.00 0.00 48 1013.0
20260504004414 55 0 0.0 0.0 0.00 0.00 0.00 47 1013.0
20260504003915 55 232 0.0 2.0 0.00 0.00 0.00 47 1013.0
20260504003414 56 154 0.0 2.0 0.00 0.00 0.00 46 1013.0
20260504002914 56 0 0.0 0.0 0.00 0.00 0.00 46 1013.0
20260504002414 56 0 0.0 0.0 0.00 0.00 0.00 46 1013.0
20260504001914 56 216 0.0 2.0 0.00 0.00 0.00 45 1013.0
20260504001414 57 0 0.0 0.0 0.00 0.00 0.00 45 1013.0
20260504000915 57 210 0.0 2.0 0.00 0.00 0.00 44 1013.0
20260504000416 57 236 0.0 2.0 0.00 0.00 0.00 43 1013.0
20260503235914 57 185 0.0 2.0 0.00 0.00 0.00 43 1013.0
20260503235414 57 310 1.0 3.0 0.00 0.00 0.00 42 1013.0
20260503234914 57 237 0.0 3.0 0.00 0.00 0.00 42 1013.0
20260503234414 58 0 0.0 0.0 0.00 0.00 0.00 42 1013.0
20260503233914 58 138 1.0 2.0 0.00 0.00 0.00 42 1013.0
20260503233414 58 258 2.0 5.0 0.00 0.00 0.00 42 1013.0
20260503232914 58 220 1.0 4.0 0.00 0.00 0.00 41 1013.0
20260503232415 58 212 2.0 5.0 0.00 0.00 0.00 41 1013.0
20260503231916 58 212 2.0 4.0 0.00 0.00 0.00 41 1013.0
20260503231414 58 177 3.0 6.0 0.00 0.00 0.00 41 1013.0
20260503230914 58 179 3.0 9.0 0.00 0.00 0.00 40 1013.0
20260503230414 59 204 2.0 5.0 0.00 0.00 0.00 40 1013.0
20260503225914 59 196 2.0 4.0 0.00 0.00 0.00 40 1013.0
20260503225414 59 196 3.0 7.0 0.00 0.00 0.00 40 1013.0
20260503224914 59 219 3.0 6.0 0.00 0.00 0.00 39 1013.0
20260503224414 60 244 3.0 7.0 0.00 0.00 0.00 39 1013.0
20260503223914 60 219 4.0 8.0 0.00 0.00 0.00 39 1013.0
20260503223414 61 194 2.0 5.0 0.00 0.00 0.00 38 1013.0
20260503222914 61 226 3.0 5.0 0.00 0.00 0.00 38 1013.0
20260503222414 60 329 1.0 2.0 0.00 0.00 0.00 38 1013.0
20260503221914 60 209 3.0 5.0 0.00 0.00 0.00 36 1013.0
20260503221414 61 157 2.0 6.0 0.00 0.00 0.00 37 1013.0
20260503220914 61 103 1.0 4.0 0.00 0.00 0.00 37 1013.0
20260503220414 60 258 2.0 4.0 0.00 0.00 0.00 36 1013.0
20260503215914 61 272 2.0 5.0 0.00 0.00 0.00 36 1013.0
20260503215415 61 158 0.0 2.0 0.00 0.00 0.00 37 1013.0
20260503214914 61 130 1.0 3.0 0.00 0.00 0.00 35 1013.0
20260503214415 60 174 3.0 8.0 0.00 0.00 0.00 37 1013.0
20260503213915 61 214 1.0 5.0 0.00 0.00 0.00 37 1013.0
20260503213414 62 311 2.0 6.0 0.00 0.00 0.00 36 1013.0
20260503212915 62 221 2.0 4.0 0.00 0.00 0.00 35 1013.0
20260503212414 62 342 2.0 3.0 0.00 0.00 0.00 36 1013.0
20260503211915 62 300 2.0 4.0 0.00 0.00 0.00 36 1013.0
20260503211415 62 223 3.0 7.0 0.00 0.00 0.00 37 1013.0
20260503210914 61 185 3.0 4.0 0.00 0.00 0.00 37 1013.0
20260503210414 61 200 4.0 10.0 0.00 0.00 0.00 38 1013.0
20260503205914 61 280 3.0 6.0 0.00 0.00 0.00 36 1013.0
20260503205414 62 203 3.0 8.0 0.00 0.00 0.00 36 1013.0
20260503204914 61 326 2.0 6.0 0.00 0.00 0.00 37 1013.0
20260503204414 60 258 3.0 6.0 0.00 0.00 0.00 38 1013.0
20260503203916 59 213 2.0 5.0 0.00 0.00 0.00 39 1013.0
20260503203415 60 214 4.0 7.0 0.00 0.00 0.00 37 1013.0
20260503202914 60 210 2.0 6.0 0.00 0.00 0.00 38 1013.0
20260503202415 60 139 1.0 2.0 0.00 0.00 0.00 38 1013.0
20260503201915 60 217 3.0 6.0 0.00 0.00 0.00 38 1013.0
20260503201414 60 191 0.0 2.0 0.00 0.00 0.00 38 1014.0
20260503200914 61 205 3.0 6.0 0.00 0.00 0.00 37 1014.0
20260503200414 61 306 2.0 6.0 0.00 0.00 0.00 38 1014.0
20260503195914 61 245 3.0 5.0 0.00 0.00 0.00 38 1014.0
20260503195415 62 279 2.0 6.0 0.00 0.00 0.00 37 1014.0
20260503194914 61 282 3.0 8.0 0.00 0.00 0.00 36 1014.0
20260503194415 60 215 4.0 6.0 0.00 0.00 0.00 38 1014.0
20260503193914 61 326 4.0 9.0 0.00 0.00 0.00 37 1014.0
20260503193415 61 209 1.0 4.0 0.00 0.00 0.00 39 1014.0
20260503192915 61 330 2.0 5.0 0.00 0.00 0.00 38 1014.0
20260503192414 60 330 1.0 4.0 0.00 0.00 0.00 40 1014.0
20260503191914 61 303 2.0 4.0 0.00 0.00 0.00 40 1014.0
20260503191415 61 204 4.0 8.0 0.00 0.00 0.00 40 1014.0
20260503190915 62 214 2.0 6.0 0.00 0.00 0.00 38 1015.0
20260503190415 62 297 0.0 2.0 0.00 0.00 0.00 38 1015.0
20260503185914 62 322 3.0 7.0 0.00 0.00 0.00 37 1015.0
20260503185414 62 306 3.0 8.0 0.00 0.00 0.00 38 1015.0
20260503184914 62 266 2.0 6.0 0.00 0.00 0.00 37 1015.0
20260503184415 61 320 3.0 8.0 0.00 0.00 0.00 40 1015.0
20260503183914 61 213 1.0 4.0 0.00 0.00 0.00 42 1015.0
20260503183415 61 318 3.0 6.0 0.00 0.00 0.00 39 1015.0
20260503182915 60 209 4.0 6.0 0.00 0.00 0.00 40 1015.0
20260503182415 60 213 4.0 9.0 0.00 0.00 0.00 40 1015.0
20260503181915 61 345 2.0 6.0 0.00 0.00 0.00 39 1015.0
20260503181414 61 4 2.0 4.0 0.00 0.00 0.00 40 1015.0
20260503180914 61 168 2.0 6.0 0.00 0.00 0.00 40 1015.0
20260503180414 61 344 2.0 4.0 0.00 0.00 0.00 39 1015.0
20260503175914 60 312 2.0 4.0 0.00 0.00 0.00 41 1015.0
20260503175417 60 222 6.0 8.0 0.00 0.00 0.00 39 1015.0
20260503174914 59 336 2.0 4.0 0.00 0.00 0.00 40 1015.0
20260503174414 59 1 1.0 4.0 0.00 0.00 0.00 43 1016.0
20260503173915 60 228 4.0 8.0 0.00 0.00 0.00 38 1015.0
20260503173414 60 243 2.0 5.0 0.00 0.00 0.00 40 1016.0
20260503172914 59 287 2.0 5.0 0.00 0.00 0.00 41 1016.0
20260503172414 59 247 4.0 7.0 0.00 0.00 0.00 41 1016.0
20260503171915 59 308 2.0 4.0 0.00 0.00 0.00 40 1015.0
20260503171414 59 320 2.0 5.0 0.00 0.00 0.00 40 1016.0
20260503170915 58 306 4.0 8.0 0.00 0.00 0.00 38 1016.0
20260503170417 57 306 2.0 4.0 0.00 0.00 0.00 42 1016.0
20260503150914 54 277 1.0 5.0 0.00 0.00 0.00 41 1017.0
20260503150415 54 274 2.0 4.0 0.00 0.00 0.00 40 1017.0
20260503131415 42 261 1.0 3.0 0.00 0.00 0.00 88 1018.0
20260503130914 41 224 2.0 4.0 0.00 0.00 0.00 96 1018.0
20260503130414 40 163 0.0 2.0 0.00 0.00 0.00 97 1018.0
20260503110414 30 0 0.0 0.0 0.00 0.00 0.00 100 1017.0
20260503090414 32 0 0.0 0.0 0.00 0.00 0.00 98 1016.0
20260503081415 32 0 0.0 0.0 0.00 0.00 0.00 98 1016.0
20260503080914 32 0 0.0 0.0 0.00 0.00 0.00 98 1016.0
20260503080414 32 0 0.0 0.0 0.00 0.00 0.00 98 1016.0
20260503072914 33 0 0.0 0.0 0.00 0.00 0.00 97 1016.0
20260503072414 33 0 0.0 0.0 0.00 0.00 0.00 98 1016.0
20260503071915 33 0 0.0 0.0 0.00 0.00 0.00 97 1016.0
20260503071415 33 0 0.0 0.0 0.00 0.00 0.00 97 1016.0
20260503070914 33 0 0.0 0.0 0.00 0.00 0.00 97 1016.0
20260503070415 34 0 0.0 0.0 0.00 0.00 0.00 97 1016.0
20260503054914 35 0 0.0 0.0 0.00 0.00 0.00 96 1016.0
20260503054415 35 0 0.0 0.0 0.00 0.00 0.00 96 1016.0
20260503053915 35 0 0.0 0.0 0.00 0.00 0.00 96 1016.0
20260503053415 35 0 0.0 0.0 0.00 0.00 0.00 96 1016.0
20260503052914 35 0 0.0 0.0 0.00 0.00 0.00 96 1016.0
20260503052414 35 0 0.0 0.0 0.00 0.00 0.00 96 1016.0
20260503051915 35 0 0.0 0.0 0.00 0.00 0.00 96 1016.0
20260503051414 35 0 0.0 0.0 0.00 0.00 0.00 96 1016.0
20260503050914 35 0 0.0 0.0 0.00 0.00 0.00 96 1016.0
20260503050414 36 0 0.0 0.0 0.00 0.00 0.00 95 1016.0
20260503045914 36 0 0.0 0.0 0.00 0.00 0.00 95 1016.0
20260503045414 36 0 0.0 0.0 0.00 0.00 0.00 95 1016.0
20260503044914 36 0 0.0 0.0 0.00 0.00 0.00 95 1016.0
20260503044414 36 0 0.0 0.0 0.00 0.00 0.00 95 1016.0
20260503043915 36 0 0.0 0.0 0.00 0.00 0.00 95 1016.0
20260503043415 36 0 0.0 0.0 0.00 0.00 0.00 95 1016.0
20260503042914 36 0 0.0 0.0 0.00 0.00 0.00 94 1016.0
20260503042414 36 0 0.0 0.0 0.00 0.00 0.00 94 1016.0
20260503041914 36 0 0.0 0.0 0.00 0.00 0.00 94 1016.0
20260503041415 36 0 0.0 0.0 0.00 0.00 0.00 94 1016.0
20260503040915 36 0 0.0 0.0 0.00 0.00 0.00 94 1016.0
20260503040414 36 0 0.0 0.0 0.00 0.00 0.00 94 1016.0
20260503035914 36 0 0.0 0.0 0.00 0.00 0.03 93 1016.0
20260503035414 36 0 0.0 0.0 0.00 0.00 0.03 93 1016.0
20260503034915 36 0 0.0 0.0 0.00 0.00 0.03 93 1016.0
20260503034414 36 0 0.0 0.0 0.00 0.00 0.03 93 1016.0
20260503033914 36 0 0.0 0.0 0.00 0.00 0.03 92 1016.0
20260503033414 36 0 0.0 0.0 0.00 0.00 0.03 92 1016.0
20260503032915 36 0 0.0 0.0 0.00 0.00 0.03 91 1016.0
20260503032415 36 0 0.0 0.0 0.00 0.00 0.03 91 1016.0
20260503031914 36 0 0.0 0.0 0.00 0.00 0.03 91 1016.0
20260503031414 36 0 0.0 0.0 0.00 0.00 0.03 90 1016.0
20260503030914 36 0 0.0 0.0 0.00 0.00 0.03 89 1016.0
20260503030414 37 0 0.0 0.0 0.00 0.00 0.03 88 1016.0
20260503025915 37 0 0.0 0.0 0.00 0.00 0.03 87 1016.0
20260503025414 37 0 0.0 0.0 0.00 0.00 0.03 87 1016.0
20260503024915 37 0 0.0 0.0 0.00 0.00 0.03 86 1016.0
20260503024414 38 0 0.0 0.0 0.00 0.00 0.03 85 1016.0
20260503023914 38 0 0.0 0.0 0.00 0.00 0.03 84 1016.0
20260503023414 38 0 0.0 0.0 0.00 0.00 0.03 81 1016.0
20260503022914 39 0 0.0 0.0 0.00 0.00 0.03 79 1016.0
20260503022414 39 0 0.0 0.0 0.00 0.00 0.03 78 1016.0
20260503021915 40 0 0.0 0.0 0.00 0.00 0.03 78 1016.0
20260503021414 40 0 0.0 0.0 0.00 0.00 0.03 77 1016.0
20260503020914 40 0 0.0 0.0 0.00 0.00 0.03 76 1016.0
20260503020414 40 0 0.0 0.0 0.00 0.00 0.03 76 1017.0
20260503015914 40 0 0.0 0.0 0.00 0.00 0.03 74 1017.0
20260503015414 40 356 0.0 2.0 0.00 0.00 0.03 73 1017.0
20260503014914 40 329 0.0 1.0 0.00 0.00 0.03 74 1017.0
20260503014415 40 0 0.0 0.0 0.00 0.00 0.03 74 1017.0
20260503013914 40 323 0.0 1.0 0.00 0.00 0.03 74 1017.0
20260503013415 40 0 0.0 0.0 0.00 0.00 0.03 75 1017.0
20260503012914 40 0 0.0 0.0 0.00 0.00 0.03 76 1017.0
20260503012414 40 324 0.0 1.0 0.00 0.00 0.03 76 1017.0
20260503011914 40 0 0.0 0.0 0.00 0.00 0.03 76 1017.0
20260503011414 40 0 0.0 0.0 0.00 0.00 0.03 75 1017.0
20260503010914 40 0 0.0 0.0 0.00 0.00 0.03 75 1016.0
20260503010414 41 0 0.0 0.0 0.00 0.00 0.03 74 1016.0